Location: Alto Pass Reservoir
(37.5801°N, 89.3084°W)
Time: 04:39:52
(UTC+00:00)

Cosmos 1666 - Pass Details

Date: 03 July 2022
Orbit: 490 x 510 km, 82.5° (Epoch: 16 August)

Event Time Altitude Azimuth Distance (km) Brightness Sun altitude
Exits shadow 08:51:51 20° 161° (SSE) 1,202 4.3 -17.4°
Maximum altitude 08:54:09 48° 94° (E) 662 3.4 -17.1°
Drops below altitude 10° 08:57:46 10° 19° (NNE) 1,710 6.4 -16.7°
Sets 08:59:55 0° 14° (NNE) 2,594 7.4 -16.4°
